User: anonymous   Login
Location: Table Mountain
(47.2500°N, 120.5778°W)
Time: 12:28:28
(UTC-07:00)
Language:

OTV 5 (USA 277) - Orbit

View from above orbital plane
View from above orbital plane
View from above satellite
View from above satellite

Ground track
Ground track

The orbit data is extracted from the following two-line orbital elements,

1 42932U 17052A   18115.87600314 0.00008000  00000-0  33418-4 0    04
2 42932  54.5143  73.9683 0012495 177.8683 182.1316 15.84836890    05
Epoch (UTC): 25 April 2018 21:01:26
Eccentricity: 0.0012495
inclination: 54.5143°
perigee height: 308 km
apogee height: 325 km
right ascension of ascending node: 73.9683°
argument of perigee: 177.8683°
revolutions per day: 15.84836890
mean anomaly at epoch: 182.1316°
orbit number at epoch: 0

The dashed part of the orbit path shows where the satellite is in the earth's shadow,  

DLR